Showing default

OPS 9342 (IDSCS 20), 3285

Orbit data source: Space-Track

OPS 9342 (IDSCS 20), 3285 is a payload satellite owned by SAMSO (US) in GEO that was launched on Thu, 13 Jun 1968 UTC via a TITAN IIIC launch vehicle from the Air Force Eastern Test Range (AFETR). Payload-class satellites include a variety of spacecraft equipped with specific instruments for various scientific and technological missions. These include communications satellites like Starlink; space stations such as the ISS; scientific satellites like the Hubble; Earth observation satellites from companies like Planet Labs, Umbra, and HawkEye 360; GPS; miniature CubeSats for education and research; and military/defense satellites.

Not visible in the next 10 days
Identifier
3285, 1968-050B
Orbit
GEO
Country
Flag of USUS
Related business
Manufacturer
Philco-Ford
Mission
Non-operational spacecraft
Bus & Motor
IDCSP, Unknown motor
Mass
45 kg wet, 45 kg dry
Launch date (UTC)
1968-06-13 (58 years ago)
Launch vehicle
TITAN IIIC
Launch site
Air Force Eastern Test Range (AFETR)
Object type
Payload
Rocket body
Debris
Shape & HBR
Unknown
Radar Cross Section
Medium (>0.1 m² and <1 m²)

Expand to show TLE details & history
Last TLE update: 7 hours ago

TLE from 7 hours ago
0 OPS 9342 (IDSCS 20)
1  3285U 68050B   26196.41390833 -.00000074  00000-0  00000+0 0  9993
2  3285   7.2931  51.4567 0015592 152.5022 235.1955  1.07818670228470
Epoch: 2026-07-15T09:56Z
TLE epoch observation values (Epoch: 2026-07-15T09:56:01.679Z)
Latitude
3.37618°
Longitude
-3.44645°
Altitude
33,830.04 km
Speed
3.147 km/s
True Right ascension
05h 15m 19s
True Declination
3° 22' 21"
Sunlit
Object was in daylight at epoch
Visualization orbit readout
Latitude
Unknown
Longitude
Unknown
Altitude
Unknown
Speed
Unknown
Apparent Right ascension
Unknown
Apparent Declination
Unknown
Sunlit
N/A
Visualization observer readout
Local Sidereal Time
05:35:32
Azimuth
Unknown
Elevation
Unknown
Doppler factor
Unknown
Orbital elements
Apogee altitude
33,859.054 km
Perigee altitude
33,733.773 km
Semi-major axis
40,174.55 km
Eccentricity
0.00156
Inclination
7.2931°
RAAN
51.4567°
Arg. of periapsis
152.5022°
True anomaly
235.04896°
Mean anomaly
235.1955°
Eccentric anomaly
235.12221°
Mean motion
0.26954 °/min
Orbital period
1,335.63 mins
BSTAR
0
Loading maneuver chart data...
Computing Atmospheric mass density...
Loading historical data...
Loading historical data...
Loading historical data...
Loading historical data...
Loading historical data...
Loading historical data...
Loading historical data...

Documentation

Showing up to 5 results
|